Location: DARK SKY Beskydy - Park tmavé oblohy, www.darkskybeskydy.cz
(49.4926°N, 18.5016°E)
Time: 03:46:46
(UTC+01:00)

N. Korean satellite - Pass Details

Date: 09 December 2022
Orbit: 407 x 442 km, 97.3° (Epoch: 05 February)

Event Time Altitude Azimuth Distance (km) Brightness Sun altitude
Rises 04:18:20 0° 26° (NNE) 2,504 10.5 -29.9°
Reaches altitude 10° 04:20:50 10° 45° (NE) 1,614 9.7 -29.5°
Maximum altitude 04:23:24 19° 92° (E) 1,141 9.2 -29.1°
Drops below altitude 10° 04:25:55 10° 141° (SE) 1,581 9.6 -28.7°
Sets 04:28:20 0° 159° (SSE) 2,434 10.4 -28.3°
